Preview of NWS' New Version of Forecast
This preview is not operational and should not be used for support decisions.

Regional Weather Roundup (RWR)

Issued by National Weather Service (NWS)

                            
000
ASUS46 KPQR 170310
RWROR 

OREGON REGIONAL WEATHER ROUNDUP
NATIONAL WEATHER SERVICE PORTLAND OR
800 PM PDT TUE APR 16 2019

NOTE: "FAIR" INDICATES FEW OR NO CLOUDS BELOW 12,000 FEET WITH
NO SIGNIFICANT WEATHER AND/OR OBSTRUCTIONS TO VISIBILITY.

ORZ001>013-170400-
NORTHWEST OREGON

  
CITY           SKY/WX    TMP DP  RH WIND       PRES   REMARKS
ASTORIA        LGT RAIN  50  46  86 SW7       30.13R FOG              
TILLAMOOK      CLOUDY    50  46  87 S7        30.17R                  
NEWPORT        CLOUDY    50  46  87 SW9       30.20R                  
PORTLAND       CLOUDY    57  42  57 W10       30.13R                  
VANCOUVER WA   CLOUDY    56  42  59 W8        30.13R                  
SCAPPOOSE      CLOUDY    57  44  62 CALM      30.12R                  
HILLSBORO      CLOUDY    54  42  64 W7        30.12R                  
AURORA         CLOUDY    54  45  71 SW6       30.15R                  
MCMINNVILLE    CLOUDY    51  45  79 SW5       30.13R                  
SALEM          CLOUDY    55  43  63 W12       30.14R                  
CORVALLIS      CLOUDY    53  45  74 SW10      30.17R                  
EUGENE         CLOUDY    54  44  69 W7        30.17R                  
$$

ORZ021-028-170400-
SOUTHWEST OREGON

  
CITY           SKY/WX    TMP DP  RH WIND       PRES   REMARKS
NORTH BEND     CLOUDY    52  48  86 SW9       30.22R                  
BROOKINGS      PTCLDY    50  47  89 CALM      30.21S                  
ROSEBURG       MOCLDY    57  44  62 NW6       30.15R                  
SEXTON SUMMIT  CLEAR     43  39  86 NW8       30.14R                  
GRANTS PASS    MOCLDY    59  41  51 CALM      30.15R                  
MEDFORD        PTCLDY    59  40  49 N5        30.12R                  
$$

ORZ014>016-041-170400-
COLUMBIA GORGE

  
CITY           SKY/WX    TMP DP  RH WIND       PRES   REMARKS
TROUTDALE      CLOUDY    57  42  57 W10       30.13R                  
HOOD RIVER     CLOUDY    54  43  66 MISG      30.08R                  
THE DALLES     CLOUDY    57  43  59 NW18G24   30.05R                  
$$

ORZ029>031-041-044-049-050-061>064-502-503-505>511-170400-
EASTERN OREGON

  
CITY           SKY/WX    TMP DP  RH WIND       PRES   REMARKS
MADRAS         CLOUDY    50  34  53 W7        30.10R                  
REDMOND        CLOUDY    51  34  52 NW12      30.08R                  
BEND           CLOUDY    48  36  61 N3        30.09R                  
PRINEVILLE     CLOUDY    48  34  57 NW13      30.09R                  
KLAMATH FALLS  CLEAR     48  36  63 NW10      30.10R                  
LAKEVIEW       CLEAR     45  34  65 S9        30.10R                  
HERMISTON      MOCLDY    59  39  47 W13       30.03R                  
PENDLETON      MOCLDY    50  41  71 W10       30.03R                  
JOHN DAY       PTCLDY    51  33  50 CALM      30.05R                  
MEACHAM        MOCLDY    42  36  79 CALM      30.05R                  
LA GRANDE      PTCLDY    48  37  65 SW3       30.05S                  
BAKER CITY     CLEAR     46  35  65 N3        30.05R                  
BURNS          CLEAR     47  34  60 SW6       30.06R                  
ROME             N/A     50  33  52 CALM      30.05R                  
ONTARIO        PTCLDY    57  36  45 CALM      30.04R                  
$$